Atlantic - Newfoundland: Past 24 Hour Conditions

 

Stephenville Airport

08:30 AM NDT 28 August 2014
This table is a summary of hourly weather conditions for the past 24 hours.
Date / Time
(NDT)
Wind(knots) Conditions Visibility(km) Pressure(kPa) Air tempC) Relative humidity(%) Dew pointC) Humidex
28 August 2014
8:30 ENE 12 gust 17 Light Rainshower 24 100.8 14 75 9 *
7:30 ENE 13 gust 18 Cloudy 24 100.8 14 77 10 *
6:30 ENE 16 Cloudy 24 100.8 14 79 10 *
5:30 ENE 18 gust 23 Cloudy 24 100.7 15 77 11 *
4:30 E 15 Cloudy 24 100.7 16 79 12 *
3:30 calm Cloudy 24 100.7 19 86 16 *
2:30 calm Mostly Cloudy 24 100.7 19 87 16 *
1:30 SW 7 Mostly Cloudy 24 100.7 19 86 16 *
0:30 SW 7 Cloudy 24 100.8 19 87 17 *
27 August 2014
23:30 SW 5 Cloudy 19 100.8 19 85 16 *
22:30 SSW 7 Cloudy 19 100.8 19 86 16 *
21:30 SW 9 Cloudy 19 100.8 19 85 16 *
20:30 SW 10 Cloudy 19 100.7 19 84 16 *
19:30 WSW 10 Cloudy 19 100.7 19 83 16 *
18:30 WSW 15 Cloudy 19 100.7 19 82 16 *
17:30 WSW 15 Cloudy 19 100.7 19 81 16 *
16:30 WSW 16 gust 23 Cloudy 24 100.6 20 79 16 *
15:30 WSW 15 gust 21 Cloudy 24 100.7 20 78 16 *
14:30 WSW 15 gust 20 Cloudy 24 100.7 20 78 16 *
13:30 W 16 gust 23 Cloudy 24 100.7 20 75 15 *
12:30 WSW 21 gust 31 Cloudy 24 100.6 20 74 15 *
11:30 WSW 16 Cloudy 24 100.7 20 76 15 *
10:30 WSW 14 gust 19 Cloudy 24 100.8 20 76 16 *
9:30 WSW 14 gust 20 Cloudy 24 100.8 20 76 16 25
8:30 WSW 14 gust 20 Cloudy 24 100.8 20 78 16 *
 
Map of Atlantic - Newfoundland marine weather areas Southwestern Grand Banks - 44138 Banquereau - 44139 Tail of the Bank - 44140 Nickerson Bank - 44251 Northeast Burgeo Bank - 44255 Blanc-Sablon Airport Cap Whittle Chevery Natashquan Airport Heath Point Miscou Island Grand Étang Ingonish Beach North Mountain St.Paul Island J.A. Douglas McCurdy Sydney Airport Charlottetown Airport East Point North Cape Argentia Bonavista Burgeo Cape Race Corner Brook Daniel's Harbour Englee Ferolle Point La Scie Port aux Basques Rocky Harbour Sagona Island St. Anthony Airport St. John's Int'l Airport St. Lawrence Stephenville Airport Twillingate Winterland Wreckhouse Cartwright Airport Mary's Harbour Grates Cove Pool's Island Marticot Island Long Pond Îles de la Madeleine Airport
Legend: buoyBuoy land stationLand Station